Location: Unspecified
(0.0000°N, 0.0000°E)
Time: 01:04:06
(UTC+00:00)

PRISM - Visible Passes

Search period start: 01 July 2022 00:00
Search period end: 11 July 2022 00:00
Orbit: 556 x 578 km, 98.2° (Epoch: 30 June)

Date Brightness Start Highest point End Pass type
(mag) Time Alt. Az. Time Alt. Az. Time Alt. Az.
01 Jul ? 04:26:38 10° NNE 04:30:33 60° ESE 04:32:38 26° S visible
02 Jul ? 04:27:35 10° NNE 04:31:31 62° ESE 04:33:38 26° S visible
03 Jul ? 04:28:33 10° NNE 04:32:30 63° ESE 04:34:38 26° S visible
04 Jul ? 04:29:31 10° NNE 04:33:28 65° ESE 04:35:38 26° S visible
05 Jul ? 04:30:28 10° NNE 04:34:26 67° ESE 04:36:37 25° S visible
06 Jul ? 04:31:25 10° NNE 04:35:23 69° ESE 04:37:37 25° S visible
07 Jul ? 04:32:22 10° NNE 04:36:21 71° ESE 04:38:36 25° S visible
08 Jul ? 04:33:19 10° NNE 04:37:18 72° E 04:39:36 25° S visible
09 Jul ? 04:34:16 10° NNE 04:38:16 74° ESE 04:40:35 24° S visible
10 Jul ? 04:35:13 10° NNE 04:39:12 76° ESE 04:41:34 24° S visible
